Location: Spring Creek
(38.2870°N, 100.2160°W)
Time: 07:13:32
(UTC+00:00)

Cosmos 1805 Rocket - Pass Details

Date: 08 May 2021
Orbit: 607 x 629 km, 82.5° (Epoch: 21 June)

Event Time Altitude Azimuth Distance (km) Brightness Sun altitude
Rises 03:27:34 0° 349° (N) 2,873 7.8 -18.9°
Reaches altitude 10° 03:29:48 10° 347° (NNW) 1,966 6.9 -19.3°
Maximum altitude 03:34:07 67° 265° (W) 662 3.8 -19.9°
Enters shadow 03:36:03 31° 192° (SSW) 1,068 4.5 -20.2°
